[[{"header":{"parameterUnit":"m.s-1","parameterCategory":1,"la1":30.2991,"la2":30.254,"lo1":-89.0895,"lo2":-89.0444,"dy":0.0017,"dx":0.0017,"nx":28,"ny":28,"refTime":"2026-01-11T09:00:00:Z","depth":0,"parameterNumber":2,"parameterNumberName":"U-component_of_WINDS"},"data":[0,0,0,0,0,0,0,0,0,0,0,0,0,0,0,0,0,0,0,0,0,0,0,0,0,0,0,0,0,0,0,0,0,0,0,0,0,0,0,0,0,0,0,0,0,0,0,0,0,0,0,0,0,0,0,0,0,0,-2.5981,-2.5982,0,-2.6083,-2.6085,-2.6086,-2.5998,-2.5994,-2.5991,-2.5987,-2.6094,-2.61,-2.6107,0,0,0,0,0,0,0,0,0,0,0,0,0,-2.571,-2.5715,-2.5981,-2.5982,-2.5984,-2.6083,-2.6085,-2.6086,-2.5998,-2.5994,-2.599,-2.5985,-2.6092,-2.61,-2.6107,0,0,0,0,0,0,0,0,0,0,0,0,0,-2.5822,-2.5717,-2.5981,-2.5952,-2.595,-2.6083,-2.6085,-2.6086,-2.5999,-2.5994,-2.5988,-2.5983,-2.609,-2.6099,-2.6108,-2.6276,0,0,-2.6137,-2.6141,0,0,0,0,0,0,0,0,-2.5815,-2.5832,-2.5955,-2.5954,-2.5952,-2.6022,-2.6028,-2.615,-2.6001,-2.5981,-2.5987,-2.5981,-2.6075,-2.6085,-2.6116,-2.6281,-2.6285,-2.6138,-2.6143,-2.6147,-2.615,0,0,0,0,0,0,0,-2.5808,-2.5827,-2.6021,-2.5957,-2.5955,-2.5934,-2.5944,-2.6051,-2.6057,-2.5982,-2.5976,-2.5989,-2.6073,-2.6108,-2.6118,-2.6287,-2.6137,-2.6146,-2.6152,-2.6155,-2.659,-2.6596,0,0,0,0,0,0,-2.5803,-2.5821,-2.6018,-2.6025,-2.5869,-2.5943,-2.5954,-2.6005,-2.6056,-2.6058,-2.5994,-2.5985,-2.6094,-2.6107,-2.6122,-2.6319,-2.6147,-2.6156,-2.6162,-2.6584,-2.6592,-2.6598,0,0,0,0,0,0,-2.5797,-2.5821,-2.6014,-2.5921,-2.5944,-2.5954,-2.6012,-2.601,-2.6044,-2.6065,-2.6065,-2.6028,-2.6091,-2.6109,-2.6237,-2.6322,-2.616,-2.6169,-2.6577,-2.6587,-2.6595,-2.6716,0,0,0,0,0,0,-2.579,-2.582,-2.5884,-2.5923,-2.5949,-2.6128,-2.6017,-2.6016,-2.6061,-2.605,-2.6097,-2.6099,-2.6088,-2.6224,-2.6246,-2.6332,-2.6176,-2.657,-2.6581,-2.6592,-2.6705,-2.6728,-2.6748,0,0,0,0,0,-2.5781,-2.5915,-2.5887,-2.5912,-2.6029,-2.6133,-2.6148,-2.6131,-2.6068,-2.6132,-2.6144,-2.6098,-2.6309,-2.6238,-2.6263,-2.6352,-2.6564,-2.6578,-2.6591,-2.6695,-2.6724,-2.6748,0,0,0,0,0,0,-2.5887,-2.592,-2.5889,-2.6041,-2.6085,-2.6118,-2.6199,-2.6163,-2.6226,-2.6214,-2.6191,-2.6202,-2.6337,-2.6357,-2.6277,-2.6515,-2.6426,-2.6445,-2.6497,-2.6524,-2.6545,-2.6538,-2.6184,0,0,0,0,0,-2.5927,-2.6009,-2.6033,-2.6164,-2.6188,-2.619,-2.6234,-2.6217,-2.6262,-2.6281,-2.6303,-2.6349,-2.6424,-2.6476,-2.6547,-2.6707,-2.6715,-2.6781,-2.6802,-2.682,-2.6837,-2.6921,-2.6949,-2.6642,-2.6642,-2.6641,0,0,-2.6013,-2.6041,-2.6094,-2.6186,-2.6218,-2.6303,-2.6206,-2.63,-2.6362,-2.6295,-2.6417,-2.6435,-2.6484,-2.6629,-2.6694,-2.665,-2.6923,-2.6837,-2.6851,-2.6858,-2.6937,-2.6966,-2.6992,-2.6651,-2.6649,-2.6648,0,0,-2.6211,-2.6242,-2.6353,-2.6386,-2.6435,-2.6435,-2.6462,-2.6501,-2.6509,-2.6631,-2.6582,-2.6655,-2.6788,-2.6824,-2.686,-2.707,-2.7029,-2.7094,-2.7208,-2.729,-2.7314,-2.7335,-2.7409,-2.7435,-2.7111,-2.7111,-2.7111,0,-2.6312,-2.6437,-2.6415,-2.6512,-2.6553,-2.6494,-2.6606,-2.664,-2.6711,-2.6741,-2.669,-2.6853,-2.6883,-2.7034,-2.7084,-2.7116,-2.7145,-2.7089,-2.7312,-2.7333,-2.7353,-2.7422,-2.745,-2.7118,-2.7118,-2.7117,-2.7116,0,-2.6556,-2.6644,-2.6728,-2.6795,-2.6846,-2.6951,-2.6944,-2.6998,-2.6976,-2.6981,-2.7105,-2.7138,-2.7213,-2.7248,-2.7229,-2.7396,-2.7367,-2.7315,-2.7226,-2.739,-2.7455,-2.7482,-2.7129,-2.7126,-2.7124,-2.7122,0,0,-2.6826,-2.6878,-2.6909,-2.6938,-2.6987,-2.7054,-2.7155,-2.7228,-2.7274,-2.7324,-2.7407,-2.7519,-2.7471,-2.7512,-2.7495,-2.7568,-2.7729,-2.7506,-2.7507,-2.7545,-2.7913,-2.7951,-2.7983,-2.7702,-2.7707,-2.7711,-2.7909,0,-2.7025,-2.72,-2.7182,-2.7348,-2.7427,-2.7371,-2.7459,-2.7498,-2.7505,-2.7573,-2.7581,-2.766,-2.7591,-2.7615,-2.7684,-2.7695,-2.7803,-2.7681,-2.7779,-2.7782,-2.7767,-2.8017,-2.8058,-2.8243,-2.7934,-2.7938,-2.7942,0,-2.7281,-2.7338,-2.7512,-2.7546,-2.7579,-2.7658,-2.7722,-2.7788,-2.7831,-2.783,-2.7875,-2.7845,-2.7946,-2.7854,-2.7992,-2.7909,-2.7948,-2.7959,-2.7966,-2.7974,-2.7871,-2.803,-2.8302,-2.8329,-2.7982,-2.7978,-2.7975,0,-2.7459,-2.7579,-2.7698,-2.7724,-2.7768,-2.7824,-2.7845,-2.7882,-2.7926,-2.7982,-2.801,-2.8078,-2.8116,-2.8168,-2.8157,-2.8092,-2.8297,-2.8205,-2.8299,-2.83,-2.8345,-2.8342,-2.8625,-2.8372,-2.8372,-2.8371,-2.837,0,-2.7682,-2.779,-2.7777,-2.785,-2.7969,-2.7947,-2.8065,-2.8079,-2.8112,-2.8186,-2.8143,-2.8213,-2.8195,-2.8265,-2.8257,-2.8371,-2.8389,-2.8391,-2.8387,-2.8394,-2.8394,-2.8419,-2.8405,-2.8378,-2.8377,-2.8375,-2.8374,0,-2.7901,-2.7896,-2.8021,-2.8051,-2.8061,-2.8147,-2.8173,-2.8241,-2.8243,-2.8338,-2.8359,-2.8363,-2.8443,-2.8437,-2.8528,-2.8522,-2.8662,-2.8644,-2.8648,-2.8643,-2.8737,-2.8728,-2.9045,-2.9085,-2.8808,-2.881,-2.8812,0,-2.8043,-2.8124,-2.8162,-2.8208,-2.8232,-2.8307,-2.8351,-2.8332,-2.838,-2.8433,-2.8495,-2.857,-2.863,-2.8759,-2.8771,-2.8839,-2.8821,-2.8928,-2.8832,-2.8835,-2.8821,-2.8816,-2.8823,-2.8947,-2.895,-2.8953,-2.8955,0,-2.8296,-2.8289,-2.8354,-2.8418,-2.8472,-2.8522,-2.8567,-2.8607,-2.8592,-2.8648,-2.8728,-2.8774,-2.8865,-2.894,-2.9004,-2.9025,-2.8988,-2.8985,-2.901,-2.9017,-2.9015,-2.9016,-2.8698,-2.8978,-2.8975,-2.8974,-2.8972,-2.8971,-2.848,-2.8549,-2.8585,-2.8658,-2.869,-2.8732,-2.8797,-2.8807,-2.8873,-2.8945,-2.8929,-2.9019,-2.9058,-2.914,-2.9167,-2.9237,-2.9198,-2.9235,-2.9244,-2.9254,-2.9263,-2.9005,-2.9249,-2.9248,-2.9247,-2.9247,-2.9246,0,-2.8729,-2.8749,-2.8817,-2.888,-2.8938,-2.8896,-2.8943,-2.8994,-2.9073,-2.9111,-2.917,-2.9261,-2.9332,-2.9349,-2.9417,-2.947,-2.9454,-2.9488,-2.9483,-2.9489,-2.9295,-2.9265,-2.9499,-2.9499,-2.9499,-2.9499,-2.9499,-2.9499,-2.8866,-2.8979,-2.8976,-2.9104,-2.9123,-2.921,-2.924,-2.9279,-2.9309,-2.9412,-2.9471,-2.948,-2.951,-2.9579,-2.9643,-2.9646,-2.9672,-2.9713,-2.9709,-2.9528,-2.9503,-2.9478,-2.9451,-2.972,-2.972,-2.9897,-2.9899,-2.99]},{"header":{"parameterUnit":"m.s-1","parameterCategory":1,"la1":30.2991,"la2":30.254,"lo1":-89.0895,"lo2":-89.0444,"dy":0.0017,"dx":0.0017,"nx":28,"ny":28,"refTime":"2026-01-11T09:00:00:Z","depth":0,"parameterNumber":3,"parameterNumberName":"V-component_of_WINDS"},"data":[0,0,0,0,0,0,0,0,0,0,0,0,0,0,0,0,0,0,0,0,0,0,0,0,0,0,0,0,0,0,0,0,0,0,0,0,0,0,0,0,0,0,0,0,0,0,0,0,0,0,0,0,0,0,0,0,0,0,-3.2676,-3.2676,0,-3.2748,-3.2749,-3.275,-3.2712,-3.271,-3.2708,-3.2706,-3.2778,-3.2782,-3.2786,0,0,0,0,0,0,0,0,0,0,0,0,0,-3.25,-3.2503,-3.2676,-3.2676,-3.2677,-3.2748,-3.2749,-3.275,-3.2712,-3.271,-3.2708,-3.2706,-3.2777,-3.2781,-3.2786,0,0,0,0,0,0,0,0,0,0,0,0,0,-3.2575,-3.2504,-3.2675,-3.2667,-3.2667,-3.2748,-3.2749,-3.2751,-3.2713,-3.271,-3.2707,-3.2704,-3.2776,-3.2781,-3.2787,-3.2879,0,0,-3.2804,-3.2806,0,0,0,0,0,0,0,0,-3.257,-3.2581,-3.2667,-3.2668,-3.2668,-3.2718,-3.2714,-3.2794,-3.2714,-3.2695,-3.2706,-3.2703,-3.276,-3.2767,-3.2787,-3.2882,-3.2885,-3.2804,-3.2807,-3.281,-3.2811,0,0,0,0,0,0,0,-3.2565,-3.2578,-3.2704,-3.2669,-3.2669,-3.2658,-3.2666,-3.2729,-3.2743,-3.2697,-3.2694,-3.2704,-3.276,-3.2782,-3.2788,-3.2887,-3.2804,-3.2809,-3.2812,-3.2814,-3.3059,-3.3062,0,0,0,0,0,0,-3.2561,-3.2574,-3.2702,-3.2706,-3.2611,-3.2664,-3.2672,-3.2705,-3.2743,-3.2745,-3.2706,-3.2701,-3.2774,-3.2782,-3.2791,-3.29,-3.281,-3.2815,-3.2818,-3.3056,-3.306,-3.3063,0,0,0,0,0,0,-3.2557,-3.2573,-3.2699,-3.2639,-3.2655,-3.267,-3.2707,-3.2708,-3.273,-3.2749,-3.2751,-3.2726,-3.2772,-3.2783,-3.2857,-3.2902,-3.2818,-3.2823,-3.3052,-3.3057,-3.3061,-3.312,0,0,0,0,0,0,-3.2552,-3.2572,-3.2608,-3.2641,-3.2658,-3.2765,-3.271,-3.2712,-3.274,-3.2735,-3.2769,-3.2771,-3.277,-3.2849,-3.2863,-3.2908,-3.2827,-3.3048,-3.3054,-3.306,-3.3114,-3.3126,-3.3137,0,0,0,0,0,-3.2546,-3.2622,-3.261,-3.2626,-3.2704,-3.2768,-3.2778,-3.2776,-3.2744,-3.2779,-3.2792,-3.277,-3.2895,-3.2857,-3.2872,-3.292,-3.3045,-3.3052,-3.3059,-3.3109,-3.3124,-3.3136,0,0,0,0,0,0,-3.2594,-3.2626,-3.2613,-3.2702,-3.2733,-3.2762,-3.2807,-3.2792,-3.2832,-3.2825,-3.282,-3.2828,-3.2905,-3.292,-3.2877,-3.301,-3.2965,-3.2975,-3.2998,-3.3012,-3.3023,-3.3017,-3.2832,0,0,0,0,0,-3.2615,-3.2665,-3.269,-3.2765,-3.2782,-3.2792,-3.282,-3.2815,-3.2847,-3.2859,-3.2877,-3.2907,-3.2953,-3.2983,-3.3027,-3.3116,-3.3122,-3.3157,-3.3168,-3.3177,-3.3186,-3.3232,-3.3247,-3.3086,-3.3086,-3.3086,0,0,-3.2658,-3.2682,-3.2714,-3.2776,-3.2799,-3.285,-3.2803,-3.2859,-3.2896,-3.2867,-3.2938,-3.2952,-3.2986,-3.3067,-3.3104,-3.3082,-3.3231,-3.3186,-3.3193,-3.3197,-3.3241,-3.3256,-3.327,-3.3091,-3.309,-3.3089,0,0,-3.2763,-3.2787,-3.2851,-3.2875,-3.2911,-3.2917,-3.2933,-3.2964,-3.2972,-3.3044,-3.3022,-3.3066,-3.3146,-3.3169,-3.3192,-3.3304,-3.3285,-3.3318,-3.3377,-3.3422,-3.3435,-3.3446,-3.3484,-3.3498,-3.3327,-3.3327,-3.3328,0,-3.2812,-3.2889,-3.2886,-3.2944,-3.2971,-3.2947,-3.3011,-3.3035,-3.3083,-3.3101,-3.3076,-3.3174,-3.3195,-3.3281,-3.3308,-3.3328,-3.3344,-3.3314,-3.3433,-3.3444,-3.3455,-3.3491,-3.3506,-3.3331,-3.3331,-3.333,-3.333,0,-3.2946,-3.3,-3.3048,-3.3095,-3.3127,-3.3188,-3.3193,-3.3226,-3.3218,-3.3226,-3.3298,-3.3322,-3.3369,-3.3389,-3.3383,-3.3474,-3.3459,-3.3434,-3.3388,-3.3474,-3.3508,-3.3522,-3.3336,-3.3335,-3.3334,-3.3333,0,0,-3.3083,-3.3128,-3.3145,-3.3165,-3.3203,-3.3243,-3.3302,-3.3349,-3.3376,-3.341,-3.3457,-3.3525,-3.3501,-3.3527,-3.3522,-3.3562,-3.3647,-3.3532,-3.3532,-3.3551,-3.3747,-3.3765,-3.3782,-3.3635,-3.3638,-3.364,-3.3744,0,-3.3189,-3.3293,-3.3292,-3.3387,-3.3436,-3.3413,-3.3464,-3.3492,-3.3501,-3.3542,-3.3551,-3.3598,-3.3564,-3.3579,-3.3618,-3.3629,-3.3686,-3.3622,-3.3678,-3.368,-3.367,-3.38,-3.3819,-3.3916,-3.3757,-3.376,-3.3761,0,-3.3328,-3.3366,-3.3466,-3.3495,-3.3515,-3.3561,-3.3602,-3.3643,-3.3673,-3.3676,-3.3704,-3.3693,-3.3751,-3.3704,-3.3782,-3.3738,-3.3761,-3.377,-3.3774,-3.3778,-3.3725,-3.3806,-3.3947,-3.3961,-3.3783,-3.3781,-3.3779,0,-3.3415,-3.3492,-3.3562,-3.358,-3.3615,-3.3648,-3.3664,-3.3691,-3.3719,-3.3754,-3.3772,-3.3814,-3.3837,-3.3869,-3.3868,-3.3835,-3.3947,-3.3901,-3.395,-3.395,-3.3975,-3.3973,-3.412,-3.3991,-3.3991,-3.3991,-3.3991,0,-3.3534,-3.3595,-3.3601,-3.3644,-3.3712,-3.3709,-3.3776,-3.3789,-3.3813,-3.3856,-3.384,-3.3881,-3.3878,-3.392,-3.392,-3.3984,-3.3994,-3.3997,-3.3997,-3.3999,-3.3998,-3.4013,-3.4006,-3.3995,-3.3994,-3.3993,-3.3992,0,-3.3643,-3.365,-3.3724,-3.3751,-3.3759,-3.3808,-3.3831,-3.3871,-3.3877,-3.3933,-3.3945,-3.3956,-3.4003,-3.4006,-3.4061,-3.4061,-3.4138,-3.4131,-3.4128,-3.4127,-3.4175,-3.417,-3.4336,-3.4357,-3.4216,-3.4218,-3.4219,0,-3.3718,-3.3765,-3.3797,-3.3825,-3.3843,-3.3889,-3.3917,-3.3915,-3.3944,-3.3981,-3.4016,-3.4062,-3.4098,-3.4175,-3.4186,-3.4227,-3.422,-3.4275,-3.4226,-3.4226,-3.4219,-3.4216,-3.4219,-3.4284,-3.4286,-3.4287,-3.4288,0,-3.3849,-3.3849,-3.389,-3.3933,-3.3966,-3.3999,-3.403,-3.4054,-3.4055,-3.4089,-3.4137,-3.4165,-3.4221,-3.4266,-3.4306,-3.4321,-3.4304,-3.4304,-3.4317,-3.4319,-3.4315,-3.4316,-3.4153,-3.43,-3.4299,-3.4298,-3.4297,-3.4297,-3.3942,-3.3982,-3.4011,-3.4057,-3.4079,-3.4108,-3.4146,-3.4158,-3.4198,-3.4244,-3.424,-3.4293,-3.432,-3.4372,-3.439,-3.443,-3.4411,-3.4431,-3.4436,-3.444,-3.4445,-3.431,-3.4438,-3.4437,-3.4437,-3.4437,-3.4436,0,-3.4071,-3.4088,-3.413,-3.4173,-3.4209,-3.4191,-3.4224,-3.4254,-3.4302,-3.4328,-3.4364,-3.4419,-3.4462,-3.4477,-3.4519,-3.4548,-3.4541,-3.4559,-3.4556,-3.4559,-3.446,-3.4444,-3.4563,-3.4563,-3.4563,-3.4563,-3.4563,-3.4563,-3.4142,-3.4208,-3.4212,-3.4289,-3.4305,-3.4357,-3.4377,-3.4403,-3.4424,-3.4486,-3.4522,-3.4531,-3.4553,-3.4595,-3.4634,-3.4637,-3.4652,-3.4673,-3.4672,-3.4579,-3.4567,-3.4554,-3.4539,-3.4676,-3.4676,-3.4768,-3.4769,-3.4769]}]]